STARLINK-1340 (45583 NORAD) Tracking and Keplerian Element Data

This shows tracking and keplerian element data for the satellite.

Feedback or suggestion? Click here.




ElementValue
Catalog45583
NameSTARLINK-1340
Epoch Orbit1194
Epoch Day185.50001157
Epoch Year2020
RAAN47.113
Inclination52.9987
Eccentricity0.0001475
Argument of Perigee47.9538
Mean Anonmoly178.073
Mean Motion15.62751996
Decay Rate-3.95E-06
L11 45583U 20025BE 20185.50001157 -.00000395 00000-0 15269-5 0 9995
L22 45583 52.9987 47.1130 0001475 47.9538 178.0730 15.62751996 11948

Live tracking and technical data element details for STARLINK-1340 (NORAD 45583). STARLINK-1340 can be tracked NOW for your location showing map with azimuth and elevation plus other details from your city location.

Track the satellite on the map from your city or location and see movement details for azimuth, elevation, latitude, longitude, range, height, and movement on the map or in text.







IsCatalogInMostPopularTable: catalog: 45583, numindb: 29
Update: records affected: 1



GetName: 45583 STARLINK-1340

Hit Count: updated at: Fri, 03 Jul 2020 17:17:10 GMT